[[{"header":{"parameterUnit":"m.s-1","parameterCategory":1,"la1":30.2991,"la2":30.254,"lo1":-89.0895,"lo2":-89.0444,"dy":0.0017,"dx":0.0017,"nx":28,"ny":28,"refTime":"2024-05-27T03:00:00:Z","depth":0,"parameterNumber":2,"parameterNumberName":"U-component_of_WINDS"},"data":[0,0,0,0,0,0,0,0,0,0,0,0,0,0,0,0,0,0,0,0,0,0,0,0,0,0,0,0,0,0,0,0,0,0,0,0,0,0,0,0,0,0,0,0,0,0,0,0,0,0,0,0,0,0,0,0,0,0,2.7931,2.7932,0,2.7976,2.7977,2.7977,2.7935,2.7933,2.7932,2.793,2.7977,2.798,2.7983,0,0,0,0,0,0,0,0,0,0,0,0,0,2.7807,2.781,2.7931,2.7932,2.7932,2.7976,2.7977,2.7978,2.7935,2.7933,2.7931,2.7929,2.7976,2.798,2.7983,0,0,0,0,0,0,0,0,0,0,0,0,0,2.7858,2.7811,2.7931,2.7917,2.7916,2.7976,2.7977,2.7978,2.7936,2.7933,2.7931,2.7928,2.7975,2.7979,2.7984,2.8061,0,0,2.7997,2.7998,0,0,0,0,0,0,0,0,2.7855,2.7862,2.7918,2.7918,2.7917,2.7947,2.795,2.8006,2.7936,2.7928,2.793,2.7927,2.7969,2.7974,2.7988,2.8063,2.8065,2.7997,2.8,2.8001,2.8003,0,0,0,0,0,0,0,2.7852,2.786,2.7949,2.7919,2.7918,2.7907,2.7912,2.7961,2.7963,2.7929,2.7926,2.7932,2.7969,2.7984,2.7989,2.8066,2.7997,2.8001,2.8003,2.8005,2.8203,2.8205,0,0,0,0,0,0,2.785,2.7858,2.7948,2.795,2.7879,2.7912,2.7917,2.794,2.7962,2.7963,2.7934,2.7929,2.7978,2.7984,2.799,2.808,2.8001,2.8005,2.8008,2.82,2.8203,2.8206,0,0,0,0,0,0,2.7847,2.7858,2.7946,2.7903,2.7914,2.7917,2.7943,2.7942,2.7958,2.7966,2.7966,2.7949,2.7976,2.7984,2.8043,2.8081,2.8007,2.8011,2.8197,2.8201,2.8205,2.8261,0,0,0,0,0,0,2.7844,2.7857,2.7887,2.7904,2.7916,2.7998,2.7946,2.7945,2.7965,2.796,2.798,2.7981,2.7975,2.8037,2.8047,2.8086,2.8014,2.8194,2.8199,2.8204,2.8256,2.8266,2.8276,0,0,0,0,0,2.784,2.7902,2.7889,2.79,2.7953,2.8,2.8007,2.7998,2.7969,2.7998,2.8003,2.7981,2.8075,2.8043,2.8054,2.8095,2.8191,2.8197,2.8203,2.8251,2.8264,2.8275,0,0,0,0,0,0,2.7891,2.7905,2.789,2.796,2.7979,2.7993,2.803,2.8013,2.8041,2.8035,2.8023,2.8028,2.8089,2.8098,2.8062,2.8169,2.8128,2.8137,2.8161,2.8173,2.8183,2.8179,2.8018,0,0,0,0,0,2.7911,2.7948,2.7957,2.8018,2.8029,2.8028,2.8048,2.8039,2.8059,2.8067,2.8076,2.8096,2.8129,2.8152,2.8184,2.8257,2.8259,2.829,2.83,2.8308,2.8315,2.8351,2.8364,2.8226,2.8226,2.8226,0,0,2.7952,2.7963,2.7988,2.8029,2.8043,2.808,2.8035,2.8078,2.8105,2.8074,2.8128,2.8135,2.8157,2.8222,2.8251,2.8231,2.8354,2.8316,2.8322,2.8325,2.8359,2.8372,2.8384,2.823,2.823,2.8229,0,0,2.8045,2.8059,2.8109,2.8123,2.8144,2.8143,2.8155,2.8171,2.8174,2.8229,2.8204,2.8237,2.8296,2.8311,2.8327,2.8422,2.8402,2.8433,2.8485,2.852,2.8531,2.8541,2.8572,2.8584,2.8441,2.8441,2.8441,0,2.8093,2.8149,2.8138,2.8181,2.8199,2.817,2.8221,2.8235,2.8266,2.8278,2.8255,2.8327,2.834,2.8406,2.8429,2.8444,2.8455,2.8431,2.8531,2.854,2.8549,2.8579,2.8591,2.8444,2.8444,2.8444,2.8443,0,2.8206,2.8245,2.8283,2.8312,2.8334,2.8381,2.8376,2.8399,2.8388,2.8389,2.8443,2.8457,2.8489,2.8505,2.8495,2.857,2.8556,2.8532,2.8491,2.8565,2.8593,2.8605,2.8449,2.8448,2.8447,2.8446,0,0,2.8334,2.8353,2.8368,2.8379,2.8398,2.8428,2.8473,2.8503,2.8523,2.8545,2.858,2.863,2.8607,2.8624,2.8616,2.8647,2.8718,2.8619,2.8619,2.8635,2.8798,2.8814,2.8828,2.8705,2.8708,2.8709,2.8795,0,2.8426,2.8503,2.8492,2.8566,2.86,2.8572,2.8611,2.8626,2.8628,2.8657,2.8658,2.8693,2.8661,2.8671,2.8701,2.8703,2.8751,2.8697,2.8737,2.8739,2.8731,2.8843,2.8861,2.8942,2.8806,2.8808,2.881,0,2.8544,2.8567,2.8644,2.8655,2.8669,2.8704,2.8729,2.8758,2.8774,2.8773,2.8791,2.8776,2.8819,2.8778,2.8836,2.88,2.8816,2.8819,2.8822,2.8824,2.8778,2.8846,2.8968,2.8979,2.8827,2.8826,2.8825,0,2.8626,2.8678,2.8729,2.874,2.8755,2.8779,2.8787,2.8801,2.8819,2.8842,2.8853,2.8881,2.8896,2.8917,2.8909,2.888,2.8968,2.8927,2.8967,2.8967,2.8986,2.8984,2.9109,2.8999,2.8999,2.8999,2.8999,0,2.8729,2.8776,2.8766,2.8797,2.8849,2.8836,2.8887,2.8891,2.8903,2.8934,2.8912,2.8942,2.8931,2.8959,2.8954,2.9001,2.9009,2.9008,2.9005,2.9009,2.9009,2.9018,2.9011,2.9002,2.9001,2.9001,2.9,0,2.883,2.8825,2.8879,2.8888,2.8891,2.8928,2.8935,2.8964,2.8963,2.9002,2.9011,2.9009,2.9041,2.9036,2.9072,2.9068,2.9127,2.9119,2.9121,2.9118,2.9157,2.9153,2.9291,2.9307,2.9189,2.919,2.9191,0,2.8895,2.893,2.8942,2.8961,2.8969,2.9,2.9018,2.9006,2.9025,2.9045,2.9071,2.9101,2.9124,2.9176,2.9178,2.9205,2.9196,2.9242,2.92,2.9201,2.9194,2.9191,2.9193,2.9251,2.9252,2.9253,2.9254,0,2.901,2.9005,2.9031,2.9055,2.9077,2.9096,2.9113,2.9129,2.9119,2.9141,2.9173,2.9191,2.9226,2.9255,2.928,2.9287,2.9268,2.9267,2.9277,2.928,2.9279,2.9278,2.9141,2.9264,2.9263,2.9262,2.9262,2.9261,2.9093,2.9122,2.9134,2.9163,2.9174,2.9189,2.9216,2.9217,2.9243,2.927,2.9262,2.9297,2.931,2.9341,2.935,2.9377,2.936,2.9376,2.9379,2.9383,2.9386,2.9276,2.9382,2.9382,2.9382,2.9381,2.9381,0,2.9205,2.921,2.9237,2.926,2.9282,2.9262,2.9279,2.9299,2.933,2.9343,2.9366,2.9401,2.9428,2.9432,2.9457,2.9478,2.947,2.9485,2.9482,2.9484,2.9402,2.9389,2.9491,2.9491,2.9491,2.9491,2.9491,2.9491,2.9265,2.9312,2.9308,2.9359,2.9364,2.9398,2.9409,2.9422,2.9432,2.9472,2.9494,2.9496,2.9505,2.953,2.9554,2.9554,2.9564,2.9582,2.9578,2.9501,2.949,2.948,2.9467,2.9584,2.9584,2.9658,2.9658,2.9659]},{"header":{"parameterUnit":"m.s-1","parameterCategory":1,"la1":30.2991,"la2":30.254,"lo1":-89.0895,"lo2":-89.0444,"dy":0.0017,"dx":0.0017,"nx":28,"ny":28,"refTime":"2024-05-27T03:00:00:Z","depth":0,"parameterNumber":3,"parameterNumberName":"V-component_of_WINDS"},"data":[0,0,0,0,0,0,0,0,0,0,0,0,0,0,0,0,0,0,0,0,0,0,0,0,0,0,0,0,0,0,0,0,0,0,0,0,0,0,0,0,0,0,0,0,0,0,0,0,0,0,0,0,0,0,0,0,0,0,4.1854,4.1854,0,4.1871,4.1871,4.1871,4.183,4.1828,4.1827,4.1826,4.1842,4.1844,4.1845,0,0,0,0,0,0,0,0,0,0,0,0,0,4.1784,4.1786,4.1854,4.1854,4.1854,4.1871,4.1871,4.1871,4.183,4.1828,4.1827,4.1825,4.1841,4.1843,4.1845,0,0,0,0,0,0,0,0,0,0,0,0,0,4.1809,4.1786,4.1854,4.1836,4.1834,4.1871,4.1871,4.1871,4.183,4.1828,4.1826,4.1825,4.1841,4.1843,4.1846,4.19,0,0,4.1853,4.1854,0,0,0,0,0,0,0,0,4.1808,4.1812,4.1838,4.1837,4.1836,4.1846,4.1852,4.1881,4.1831,4.1832,4.1826,4.1824,4.1845,4.1847,4.1854,4.1901,4.1901,4.1853,4.1855,4.1856,4.1857,0,0,0,0,0,0,0,4.1806,4.1811,4.1861,4.1839,4.1837,4.1826,4.1828,4.1857,4.1849,4.1832,4.1829,4.1831,4.1844,4.1852,4.1854,4.1902,4.1853,4.1855,4.1857,4.1858,4.1992,4.1994,0,0,0,0,0,0,4.1807,4.181,4.186,4.1861,4.1817,4.1829,4.1831,4.1845,4.1849,4.1847,4.1833,4.1829,4.1849,4.1852,4.1855,4.1918,4.1856,4.1858,4.186,4.199,4.1992,4.1994,0,0,0,0,0,0,4.1806,4.1812,4.1859,4.1835,4.184,4.1832,4.1849,4.1846,4.1854,4.185,4.1848,4.1843,4.1847,4.1851,4.1889,4.1918,4.1859,4.1862,4.1987,4.199,4.1993,4.2044,0,0,0,0,0,0,4.1804,4.1812,4.1833,4.1835,4.1841,4.1894,4.185,4.1848,4.1859,4.1854,4.1859,4.1857,4.1846,4.1885,4.1891,4.192,4.1863,4.1984,4.1988,4.1992,4.204,4.2049,4.2056,0,0,0,0,0,4.1801,4.1847,4.1834,4.184,4.1868,4.1896,4.1899,4.1885,4.1861,4.1882,4.1879,4.1857,4.1913,4.1889,4.1896,4.1926,4.1983,4.1987,4.1992,4.2036,4.2047,4.2056,0,0,0,0,0,0,4.1848,4.1847,4.1833,4.188,4.1888,4.1889,4.1914,4.1897,4.1912,4.1907,4.1889,4.189,4.1931,4.1932,4.1905,4.1978,4.1944,4.195,4.1975,4.1986,4.1994,4.1992,4.1866,0,0,0,0,0,4.1863,4.1887,4.1884,4.1926,4.1931,4.1922,4.1934,4.1923,4.193,4.1933,4.1933,4.194,4.1959,4.1973,4.199,4.204,4.204,4.2063,4.2072,4.2078,4.2084,4.2109,4.2119,4.201,4.201,4.2009,0,0,4.1896,4.1898,4.1914,4.1936,4.1941,4.1964,4.1925,4.1952,4.197,4.1937,4.1972,4.1972,4.1979,4.2023,4.2042,4.2025,4.2114,4.2084,4.209,4.2091,4.2115,4.2125,4.2134,4.2013,4.2012,4.2012,0,0,4.1968,4.1972,4.2007,4.2013,4.2021,4.2014,4.2022,4.2025,4.2024,4.2059,4.2035,4.2054,4.2088,4.2094,4.2101,4.2174,4.2154,4.218,4.2223,4.2247,4.2256,4.2263,4.2289,4.2298,4.2186,4.2186,4.2186,0,4.2007,4.2043,4.2027,4.2056,4.2065,4.2037,4.2072,4.2078,4.2091,4.2098,4.2078,4.2119,4.2122,4.2166,4.2184,4.2191,4.2199,4.2179,4.2256,4.2263,4.227,4.2294,4.2303,4.2189,4.2188,4.2188,4.2188,0,4.2091,4.2115,4.2142,4.2156,4.2168,4.22,4.2188,4.2203,4.219,4.2185,4.2221,4.2223,4.224,4.225,4.2238,4.2292,4.2281,4.2259,4.2225,4.2284,4.2306,4.2315,4.2193,4.2192,4.2191,4.219,0,0,4.2193,4.2196,4.2206,4.2211,4.2217,4.2236,4.2265,4.2282,4.2294,4.2304,4.2328,4.2356,4.2336,4.2345,4.2333,4.2355,4.2411,4.233,4.233,4.2344,4.2469,4.2485,4.2496,4.2398,4.2399,4.2401,4.2468,0,4.2263,4.2314,4.23,4.2351,4.2373,4.2345,4.2371,4.2377,4.2373,4.2391,4.2386,4.2406,4.2378,4.2383,4.2404,4.24,4.2435,4.2394,4.2419,4.242,4.2418,4.2507,4.2525,4.2588,4.2477,4.2478,4.2479,0,4.2352,4.2364,4.2417,4.2418,4.2427,4.2451,4.2464,4.2481,4.2487,4.2482,4.2491,4.2475,4.2503,4.2469,4.2507,4.2479,4.2488,4.2488,4.249,4.2491,4.2453,4.2511,4.2608,4.2618,4.2493,4.2492,4.2491,0,4.242,4.245,4.2485,4.2491,4.2493,4.251,4.2512,4.2515,4.2526,4.2537,4.2544,4.2559,4.2567,4.2578,4.2566,4.2542,4.2605,4.257,4.2602,4.2602,4.2616,4.2616,4.2716,4.2623,4.2623,4.2623,4.2622,0,4.2499,4.2533,4.2516,4.2538,4.2574,4.2557,4.2593,4.2591,4.2595,4.2615,4.2592,4.2612,4.2594,4.2612,4.2602,4.2635,4.2639,4.2635,4.2632,4.2637,4.2637,4.2643,4.2638,4.2625,4.2625,4.2624,4.2624,0,4.2582,4.2572,4.2608,4.2607,4.2608,4.2634,4.2633,4.2652,4.2646,4.2672,4.2677,4.2668,4.2688,4.2676,4.2696,4.269,4.2732,4.2723,4.273,4.2727,4.2759,4.2756,4.2867,4.288,4.2779,4.278,4.278,0,4.2633,4.2658,4.2659,4.2671,4.2674,4.2694,4.2704,4.2688,4.27,4.2708,4.2726,4.2744,4.2757,4.2789,4.2784,4.2798,4.2789,4.2827,4.2792,4.2795,4.2789,4.2788,4.279,4.2834,4.2835,4.2836,4.2837,0,4.2725,4.2718,4.2734,4.2748,4.2761,4.2772,4.278,4.2791,4.2775,4.2789,4.2808,4.2819,4.2839,4.2856,4.2868,4.2869,4.2851,4.2848,4.2856,4.2861,4.2864,4.2862,4.2749,4.2846,4.2845,4.2844,4.2844,4.2844,4.2793,4.2813,4.2817,4.2835,4.2839,4.2847,4.2865,4.2861,4.2877,4.2892,4.2882,4.2905,4.2909,4.2923,4.2927,4.2944,4.2929,4.294,4.2943,4.2946,4.2951,4.2862,4.2946,4.2946,4.2946,4.2945,4.2945,0,4.2883,4.2884,4.29,4.2912,4.2926,4.2907,4.2915,4.2928,4.2948,4.2954,4.2967,4.2989,4.3005,4.3001,4.3015,4.303,4.3022,4.3034,4.3033,4.3033,4.2964,4.2955,4.3041,4.3041,4.3041,4.3041,4.3041,4.3041,4.2931,4.2964,4.2958,4.2993,4.2993,4.3015,4.3021,4.3028,4.3032,4.3057,4.3071,4.3068,4.3069,4.3083,4.3097,4.3095,4.3102,4.3117,4.3113,4.3048,4.3038,4.3029,4.3021,4.3119,4.3119,4.318,4.3181,4.3181]}]]